Rome, GA

10:48 AM EST on November 17, 2019 (GMT -0500)
Russell

Weather History for KRMG - August, 2019

Change the Weather History Date:

Wednesday, August 21, 2019

  Actual Average Record
Temperature  
Mean Temperature 84 °F 78 °F  
Max Temperature 96 °F 89 °F 100 °F (2007)
Min Temperature 71 °F 67 °F 7 °F (1996)
Cooling Degree Days 18 13  
Month to date cooling degree days 365 297  
Year to date cooling degree days 1633 1241  
Since 1 June cooling degree days 1259 1073  
Growing Degree Days 34 (Base 50)    
Moisture  
Dew Point 71 °F    
Average Humidity 70    
Maximum Humidity 93    
Minimum Humidity 44    
Precipitation  
Precipitation 0.00 in 0.13 in 0.80 in (2006)
Month to date precipitation 3.04 2.85  
Year to date precipitation 39.80 34.14  
Sea Level Pressure  
Sea Level Pressure 30.04 in    
Wind  
Wind Speed 2 mph ()    
Max Wind Speed 9 mph    
Max Gust Speed 15 mph    
Visibility 10.0 miles    
Events      
T = Trace of Precipitation, MM = Missing Value Source: Averaged Metar Reports

Daily Weather History Graph

Daily Weather History Graph

Search for Another Location

Airport or City:

Astronomy

Aug. 21, 2019 Rise Set
Actual Time 7:05 AM EDT 8:21 PM EDT
Civil Twilight 6:39 AM EDT 8:47 PM EDT
Nautical Twilight 6:08 AM EDT 9:18 PM EDT
Astronomical Twilight 5:35 AM EDT 9:50 PM EDT
Moon 11:53 PM EDT (8/21) 12:27 PM EDT (8/21)
Length of Visible Light 14h 07m
Length of Day
13h 15m
Waning Gibbous, 69% of the Moon is Illuminated
Aug 21
Waning Gibbous
Aug 23
Last Quarter
Aug 30
New
Sep 5
First Quarter
Sep 14
Full

Hourly Weather History & Observations

Time (EDT) Temp. Heat Index Dew Point Humidity Pressure Visibility Wind Dir Wind Speed Gust Speed Precip Events Conditions
12:53 AM 75.0 °F - 71.1 °F 87% 30.06 in 10.0 mi West 4.6 mph - 0.00 in   Clear
1:53 AM 73.9 °F - 70.0 °F 87% 30.04 in 10.0 mi Calm Calm - N/A   Clear
2:53 AM 73.9 °F - 70.0 °F 87% 30.03 in 10.0 mi Calm Calm - N/A   Clear
3:53 AM 73.0 °F - 70.0 °F 90% 30.03 in 10.0 mi Calm Calm - N/A   Clear
4:53 AM 73.0 °F - 70.0 °F 90% 30.03 in 10.0 mi Calm Calm - N/A   Clear
5:53 AM 72.0 °F - 69.1 °F 91% 30.04 in 10.0 mi Calm Calm - N/A   Clear
7:53 AM 73.0 °F - 70.0 °F 90% 30.08 in 10.0 mi Calm Calm - N/A   Clear
8:53 AM 75.9 °F - 71.1 °F 85% 30.08 in 10.0 mi SE 3.5 mph - N/A   Clear
9:22 AM 77.0 °F - 71.1 °F 82% 30.11 in 10.0 mi Variable 4.6 mph - N/A   Mostly Cloudy
9:53 AM 78.1 °F - 72.0 °F 81% 30.09 in 10.0 mi SSW 4.6 mph - N/A   Mostly Cloudy
10:11 AM 80.1 °F 83.8 °F 72.0 °F 76% 30.12 in 10.0 mi SW 5.8 mph - N/A   Scattered Clouds
10:53 AM 82.9 °F 88.0 °F 72.0 °F 69% 30.09 in 10.0 mi SSW 6.9 mph - N/A   Clear
11:53 AM 86.0 °F 92.2 °F 72.0 °F 63% 30.09 in 10.0 mi North - - N/A   Partly Cloudy
12:53 PM 90.0 °F 96.4 °F 71.1 °F 54% 30.08 in 10.0 mi Variable 5.8 mph - N/A   Mostly Cloudy
1:53 PM 91.0 °F 96.6 °F 70.0 °F 50% 30.06 in 10.0 mi SSW 6.9 mph - N/A   Partly Cloudy
2:53 PM 93.0 °F 97.9 °F 69.1 °F 45% 30.04 in 10.0 mi North - - N/A   Mostly Cloudy
3:53 PM 93.0 °F 97.4 °F 68.0 °F 44% 30.01 in 10.0 mi Variable 4.6 mph - N/A   Mostly Cloudy
4:53 PM 91.0 °F 95.6 °F 69.1 °F 48% 29.99 in 10.0 mi East 4.6 mph - N/A   Mostly Cloudy
5:53 PM 93.0 °F 99.0 °F 70.0 °F 47% 29.98 in 10.0 mi ENE 4.6 mph - N/A   Scattered Clouds
6:53 PM 91.0 °F 96.6 °F 70.0 °F 50% 29.97 in 10.0 mi SE 3.5 mph - N/A   Partly Cloudy
7:53 PM 90.0 °F 94.5 °F 69.1 °F 50% 29.97 in 10.0 mi Calm Calm - N/A   Partly Cloudy
8:53 PM 84.9 °F 89.4 °F 70.0 °F 61% 29.99 in 10.0 mi Calm Calm - N/A   Clear
9:53 PM 81.0 °F 85.2 °F 72.0 °F 74% 30.01 in 10.0 mi Calm Calm - N/A   Clear
10:53 PM 80.1 °F 83.8 °F 72.0 °F 76% 30.02 in 10.0 mi Calm Calm - N/A   Clear
11:53 PM 78.1 °F - 72.0 °F 81% 30.02 in 10.0 mi Calm Calm - N/A   Clear